time, Switch, Flow(0), Analog(2)
yyyy/mm/dd HH:MM:SS.fff, True=FILTERED|False=TOTAL, L/min, V
2023/06/08 23:00:08.383, True, 1.658, 0.152361
2023/06/08 23:00:08.879, True, 1.348, 0.153429
2023/06/08 23:00:09.383, True, 1.326, 0.151675
2023/06/08 23:00:09.887, True, 1.658, 0.151446
2023/06/08 23:00:10.383, True, 1.348, 0.152667
2023/06/08 23:00:10.888, True, 1.326, 0.152056
2023/06/08 23:00:11.391, True, 1.327, 0.151446
2023/06/08 23:00:11.887, True, 1.347, 0.151598
2023/06/08 23:00:12.391, True, 1.658, 0.148241
2023/06/08 23:00:12.896, True, 1.326, 0.151522
2023/06/08 23:00:13.392, True, 1.348, 0.151980
2023/06/08 23:00:13.895, True, 1.658, 0.149615
2023/06/08 23:00:14.400, True, 1.327, 0.152361
2023/06/08 23:00:14.895, True, 1.348, 0.150454
2023/06/08 23:00:15.400, True, 1.658, 0.149691
2023/06/08 23:00:15.903, True, 1.328, 0.151904
2023/06/08 23:00:16.400, True, 1.684, 0.153201
2023/06/08 23:00:16.903, True, 1.325, 0.151827
2023/06/08 23:00:17.400, True, 1.347, 0.152285
2023/06/08 23:00:17.903, True, 1.658, 0.152056
2023/06/08 23:00:18.408, True, 1.327, 0.152972
2023/06/08 23:00:18.903, True, 1.347, 0.153506
2023/06/08 23:00:19.408, True, 1.326, 0.152285
2023/06/08 23:00:19.912, True, 1.327, 0.152209
2023/06/08 23:00:20.407, True, 1.684, 0.151827
2023/06/08 23:00:20.911, True, 1.327, 0.150530
2023/06/08 23:00:21.416, True, 1.657, 0.151141
2023/06/08 23:00:21.911, True, 1.349, 0.151522
2023/06/08 23:00:22.415, True, 1.657, 0.151904
2023/06/08 23:00:22.919, True, 1.327, 0.150530
2023/06/08 23:00:23.415, True, 1.684, 0.154040
2023/06/08 23:00:23.920, True, 1.326, 0.151751
2023/06/08 23:00:24.424, True, 1.326, 0.150530
2023/06/08 23:00:24.919, True, 1.685, 0.151369
2023/06/08 23:00:25.423, True, 1.326, 0.150301
2023/06/08 23:00:25.927, True, 1.326, 0.151751
2023/06/08 23:00:26.423, True, 1.685, 0.153506
2023/06/08 23:00:26.927, True, 1.326, 0.151446
2023/06/08 23:00:27.431, True, 1.658, 0.154498
2023/06/08 23:00:27.936, True, 1.327, 0.152514
2023/06/08 23:00:28.432, True, 1.685, 0.150988
2023/06/08 23:00:28.935, True, 1.327, 0.151293
2023/06/08 23:00:29.440, True, 1.658, 0.151293
2023/06/08 23:00:29.935, True, 1.347, 0.152285
2023/06/08 23:00:30.439, True, 1.658, 0.151751
2023/06/08 23:00:30.944, True, 1.327, 0.150149
2023/06/08 23:00:31.439, True, 1.684, 0.150072
2023/06/08 23:00:31.943, True, 1.328, 0.153277
2023/06/08 23:00:32.447, True, 1.325, 0.152285
2023/06/08 23:00:32.943, True, 1.348, 0.152590
2023/06/08 23:00:33.447, True, 1.658, 0.149767
2023/06/08 23:00:33.951, True, 1.327, 0.152743
2023/06/08 23:00:34.447, True, 1.348, 0.151751
2023/06/08 23:00:34.951, True, 1.658, 0.151598
2023/06/08 23:00:35.455, True, 1.327, 0.151217
2023/06/08 23:00:35.959, True, 1.326, 0.152209
2023/06/08 23:00:36.455, True, 1.684, 0.152285
2023/06/08 23:00:36.959, True, 1.327, 0.152972
2023/06/08 23:00:37.455, True, 1.348, 0.150607
2023/06/08 23:00:37.959, True, 1.328, 0.149538
2023/06/08 23:00:38.463, True, 1.657, 0.151141
2023/06/08 23:00:38.967, True, 1.326, 0.149462
2023/06/08 23:00:39.463, True, 1.349, 0.152209
2023/06/08 23:00:39.967, True, 1.657, 0.151217
2023/06/08 23:00:40.471, True, 1.326, 0.152209
2023/06/08 23:00:40.967, True, 1.347, 0.151064
2023/06/08 23:00:41.471, True, 1.659, 0.152590
2023/06/08 23:00:41.967, True, 1.348, 0.150607
2023/06/08 23:00:42.471, True, 1.325, 0.151293
2023/06/08 23:00:42.975, True, 1.660, 0.151293
2023/06/08 23:00:43.471, True, 1.348, 0.152438
2023/06/08 23:00:43.975, True, 1.325, 0.151980
2023/06/08 23:00:44.479, True, 1.327, 0.155108
2023/06/08 23:00:44.975, True, 1.686, 0.152285
2023/06/08 23:00:45.479, True, 1.325, 0.155489
2023/06/08 23:00:45.983, True, 1.328, 0.151522
2023/06/08 23:00:46.487, True, 1.659, 0.153735
2023/06/08 23:00:46.983, True, 1.347, 0.154726
2023/06/08 23:00:47.487, True, 1.326, 0.155184
2023/06/08 23:00:47.991, True, 1.326, 0.154955
2023/06/08 23:00:48.495, True, 1.657, 0.154650
2023/06/08 23:00:48.991, True, 1.347, 0.153735
2023/06/08 23:00:49.495, True, 1.658, 0.155413
2023/06/08 23:00:49.999, True, 1.328, 0.156023
2023/06/08 23:00:50.495, True, 1.348, 0.154726
2023/06/08 23:00:50.999, True, 1.656, 0.155413
2023/06/08 23:00:51.495, True, 1.348, 0.156634
2023/06/08 23:00:51.999, True, 1.328, 0.159762
2023/06/08 23:00:52.503, True, 1.324, 0.157626
2023/06/08 23:00:53.007, True, 1.658, 0.155871
2023/06/08 23:00:53.503, True, 1.348, 0.159915
2023/06/08 23:00:54.007, True, 1.326, 0.158389
2023/06/08 23:00:54.511, True, 1.329, 0.159457
2023/06/08 23:00:55.007, True, 1.685, 0.158083
2023/06/08 23:00:55.511, True, 1.325, 0.159762
2023/06/08 23:00:56.007, True, 1.683, 0.161212
2023/06/08 23:00:56.511, True, 1.327, 0.159686
2023/06/08 23:00:57.015, True, 1.658, 0.159762
2023/06/08 23:00:57.519, True, 1.326, 0.161593
2023/06/08 23:00:58.014, True, 1.348, 0.160678
2023/06/08 23:00:58.519, True, 1.658, 0.161288
2023/06/08 23:00:59.015, True, 1.348, 0.163653
2023/06/08 23:00:59.519, True, 1.326, 0.162203
2023/06/08 23:01:00.023, True, 1.327, 0.161975
2023/06/08 23:01:00.527, True, 1.658, 0.161059
2023/06/08 23:01:01.023, True, 1.348, 0.164263
2023/06/08 23:01:01.527, True, 1.327, 0.162127
2023/06/08 23:01:02.023, True, 1.348, 0.161593
2023/06/08 23:01:02.527, True, 1.657, 0.162585
2023/06/08 23:01:03.031, True, 1.327, 0.162661
2023/06/08 23:01:03.527, True, 1.347, 0.162280
2023/06/08 23:01:04.030, True, 1.658, 0.163729
2023/06/08 23:01:04.535, True, 1.326, 0.162280
2023/06/08 23:01:05.031, True, 1.688, 0.163119
2023/06/08 23:01:05.535, True, 1.324, 0.163424
2023/06/08 23:01:06.038, True, 1.326, 0.164111
2023/06/08 23:01:06.535, True, 1.685, 0.163500
2023/06/08 23:01:07.039, True, 1.326, 0.163729
2023/06/08 23:01:07.543, True, 1.658, 0.165408
2023/06/08 23:01:08.038, True, 1.348, 0.164034
2023/06/08 23:01:08.543, True, 1.326, 0.163882
2023/06/08 23:01:09.047, True, 1.326, 0.162509
2023/06/08 23:01:09.543, True, 1.348, 0.163348
2023/06/08 23:01:10.047, True, 1.658, 0.163806
2023/06/08 23:01:10.551, True, 1.326, 0.165332
2023/06/08 23:01:11.047, True, 1.348, 0.163729
2023/06/08 23:01:11.551, True, 1.658, 0.162966
2023/06/08 23:01:12.054, True, 1.327, 0.162737
2023/06/08 23:01:12.551, True, 1.347, 0.162203
2023/06/08 23:01:13.055, True, 1.658, 0.165789
2023/06/08 23:01:13.559, True, 1.326, 0.163729
2023/06/08 23:01:14.055, True, 1.348, 0.164874
2023/06/08 23:01:14.559, True, 1.326, 0.163653
2023/06/08 23:01:15.063, True, 1.658, 0.162661
2023/06/08 23:01:15.558, True, 1.348, 0.163119
2023/06/08 23:01:16.063, True, 1.658, 0.163729
2023/06/08 23:01:16.559, True, 1.348, 0.164492
2023/06/08 23:01:17.063, True, 1.326, 0.164340
2023/06/08 23:01:17.567, True, 1.658, 0.164263
2023/06/08 23:01:18.063, True, 1.348, 0.164797
2023/06/08 23:01:18.567, True, 1.327, 0.164950
2023/06/08 23:01:19.063, True, 1.683, 0.164340
2023/06/08 23:01:19.567, True, 1.326, 0.163653
2023/06/08 23:01:20.071, True, 1.658, 0.165179
2023/06/08 23:01:20.567, True, 1.688, 0.164340
2023/06/08 23:01:21.071, True, 1.324, 0.165866
2023/06/08 23:01:21.575, True, 1.326, 0.166018
2023/06/08 23:01:22.079, True, 1.326, 0.166934
2023/06/08 23:01:22.575, True, 1.685, 0.165179
2023/06/08 23:01:23.079, True, 1.328, 0.167010
2023/06/08 23:01:23.583, True, 1.657, 0.164340
2023/06/08 23:01:24.079, True, 1.348, 0.162280
2023/06/08 23:01:24.583, True, 1.326, 0.165179
2023/06/08 23:01:25.087, True, 1.661, 0.162814
2023/06/08 23:01:25.583, True, 1.345, 0.165408
2023/06/08 23:01:26.087, True, 1.661, 0.165026
2023/06/08 23:01:26.591, True, 1.324, 0.163424
2023/06/08 23:01:27.087, True, 1.348, 0.165637
2023/06/08 23:01:27.591, True, 1.658, 0.166094
2023/06/08 23:01:28.095, True, 1.326, 0.164797
2023/06/08 23:01:28.591, True, 1.348, 0.165866
2023/06/08 23:01:29.095, True, 1.658, 0.165942
2023/06/08 23:01:29.599, True, 1.658, 0.163958
2023/06/08 23:01:30.095, True, 1.348, 0.164034
2023/06/08 23:01:30.599, True, 1.326, 0.165332
2023/06/08 23:01:31.103, True, 1.658, 0.165484
2023/06/08 23:01:31.599, True, 1.348, 0.164797
2023/06/08 23:01:32.103, True, 1.327, 0.165179
2023/06/08 23:01:32.607, True, 1.657, 0.163577
2023/06/08 23:01:33.103, True, 1.348, 0.164416
2023/06/08 23:01:33.607, True, 1.326, 0.162051
2023/06/08 23:01:34.111, True, 1.661, 0.165942
2023/06/08 23:01:34.607, True, 1.346, 0.165484
2023/06/08 23:01:35.111, True, 1.327, 0.163882
2023/06/08 23:01:35.615, True, 1.660, 0.165026
2023/06/08 23:01:36.111, True, 1.347, 0.164111
2023/06/08 23:01:36.615, True, 1.326, 0.164263
2023/06/08 23:01:37.119, True, 1.658, 0.164797
2023/06/08 23:01:37.615, True, 1.348, 0.165179
2023/06/08 23:01:38.118, True, 1.326, 0.164721
2023/06/08 23:01:38.623, True, 1.660, 0.164034
2023/06/08 23:01:39.118, True, 1.349, 0.165408
2023/06/08 23:01:39.623, True, 1.326, 0.164111
2023/06/08 23:01:40.127, True, 1.656, 0.162661
2023/06/08 23:01:40.623, True, 1.347, 0.162356
2023/06/08 23:01:41.127, True, 1.326, 0.162966
2023/06/08 23:01:41.631, True, 1.658, 0.165026
2023/06/08 23:01:42.135, True, 1.326, 0.164645
2023/06/08 23:01:42.631, True, 1.348, 0.162432
2023/06/08 23:01:43.135, True, 1.329, 0.164034
2023/06/08 23:01:43.639, True, 1.324, 0.162203
2023/06/08 23:01:44.135, True, 1.686, 0.162814
2023/06/08 23:01:44.639, True, 1.326, 0.164874
2023/06/08 23:01:45.143, True, 1.658, 0.163653
2023/06/08 23:01:45.639, True, 1.685, 0.162966
2023/06/08 23:01:46.143, True, 1.326, 0.161669
2023/06/08 23:01:46.647, True, 1.658, 0.163577
2023/06/08 23:01:47.143, True, 1.348, 0.164645
2023/06/08 23:01:47.647, True, 1.327, 0.164111
2023/06/08 23:01:48.151, True, 1.326, 0.165484
2023/06/08 23:01:48.647, True, 1.348, 0.162127
2023/06/08 23:01:49.151, True, 1.326, 0.164340
2023/06/08 23:01:49.655, True, 1.658, 0.163882
2023/06/08 23:01:50.151, True, 1.348, 0.163043
2023/06/08 23:01:50.655, True, 1.658, 0.163882
2023/06/08 23:01:51.159, True, 1.326, 0.159762
2023/06/08 23:01:51.655, True, 1.348, 0.161669
2023/06/08 23:01:52.159, True, 1.660, 0.163348
2023/06/08 23:01:52.663, True, 1.327, 0.164416
2023/06/08 23:01:53.159, True, 1.347, 0.161746
2023/06/08 23:01:53.663, True, 1.326, 0.164797
2023/06/08 23:01:54.167, True, 1.658, 0.162966
2023/06/08 23:01:54.662, True, 1.348, 0.162737
2023/06/08 23:01:55.167, True, 1.327, 0.162432
2023/06/08 23:01:55.671, True, 1.658, 0.163348
2023/06/08 23:01:56.167, True, 1.348, 0.161517
2023/06/08 23:01:56.670, True, 1.660, 0.161212
2023/06/08 23:01:57.166, True, 1.346, 0.162432
2023/06/08 23:01:57.671, True, 1.326, 0.163195
2023/06/08 23:01:58.175, True, 1.658, 0.163806
2023/06/08 23:01:58.671, True, 1.348, 0.164340
2023/06/08 23:01:59.175, True, 1.658, 0.161975
2023/06/08 23:01:59.679, True, 1.326, 0.163119
2023/06/08 23:02:00.175, True, 1.348, 0.162661
2023/06/08 23:02:00.679, True, 1.658, 0.161288
2023/06/08 23:02:01.183, True, 1.327, 0.161669
2023/06/08 23:02:01.679, True, 1.684, 0.161593
2023/06/08 23:02:02.183, True, 1.327, 0.164797
2023/06/08 23:02:02.679, True, 1.348, 0.162509
2023/06/08 23:02:03.183, True, 1.326, 0.161898
2023/06/08 23:02:03.687, True, 1.658, 0.163272
2023/06/08 23:02:04.183, True, 1.685, 0.164874
2023/06/08 23:02:04.687, True, 1.326, 0.164263
2023/06/08 23:02:05.191, True, 1.658, 0.163958
2023/06/08 23:02:05.695, True, 1.327, 0.162814
2023/06/08 23:02:06.191, True, 1.685, 0.163119
2023/06/08 23:02:06.695, True, 1.658, 0.162203
2023/06/08 23:02:07.199, True, 1.326, 0.162890
2023/06/08 23:02:07.695, True, 1.685, 0.161288
2023/06/08 23:02:08.199, True, 1.327, 0.162737
2023/06/08 23:02:08.703, True, 1.658, 0.160983
2023/06/08 23:02:09.199, True, 1.348, 0.162661
2023/06/08 23:02:09.703, True, 1.326, 0.161440
2023/06/08 23:02:10.206, True, 1.658, 0.160678
2023/06/08 23:02:10.703, True, 1.348, 0.161898
2023/06/08 23:02:11.206, True, 1.326, 0.160906
2023/06/08 23:02:11.710, True, 1.660, 0.165026
2023/06/08 23:02:12.206, True, 1.682, 0.161212
2023/06/08 23:02:12.710, True, 1.327, 0.161669
2023/06/08 23:02:13.214, True, 1.658, 0.163806
2023/06/08 23:02:13.710, True, 1.349, 0.162356
2023/06/08 23:02:14.215, True, 1.657, 0.161898
2023/06/08 23:02:14.719, True, 1.326, 0.161593
2023/06/08 23:02:15.215, True, 1.348, 0.163119
2023/06/08 23:02:15.719, True, 1.326, 0.162509
2023/06/08 23:02:16.222, True, 1.661, 0.162890
2023/06/08 23:02:16.718, True, 1.345, 0.162280
2023/06/08 23:02:17.223, True, 1.658, 0.159915
2023/06/08 23:02:17.727, True, 1.327, 0.163043
2023/06/08 23:02:18.223, True, 1.348, 0.162356
2023/06/08 23:02:18.727, True, 1.660, 0.163577
2023/06/08 23:02:19.230, True, 1.326, 0.161364
2023/06/08 23:02:19.726, True, 1.683, 0.164874
2023/06/08 23:02:20.230, True, 1.326, 0.164797
2023/06/08 23:02:20.727, True, 1.348, 0.161822
2023/06/08 23:02:21.231, True, 1.662, 0.161669
2023/06/08 23:02:21.735, True, 1.324, 0.161135
2023/06/08 23:02:22.231, True, 1.347, 0.161975
2023/06/08 23:02:22.735, True, 1.661, 0.163729
2023/06/08 23:02:23.239, True, 1.324, 0.161288
2023/06/08 23:02:23.735, True, 1.686, 0.161898
2023/06/08 23:02:24.239, True, 1.325, 0.161669
2023/06/08 23:02:24.743, True, 1.328, 0.161822
2023/06/08 23:02:25.247, True, 1.326, 0.162661
2023/06/08 23:02:25.743, True, 1.683, 0.160449
2023/06/08 23:02:26.247, True, 1.327, 0.162280
2023/06/08 23:02:26.751, True, 1.658, 0.162356
2023/06/08 23:02:27.247, True, 1.348, 0.161135
2023/06/08 23:02:27.751, True, 1.658, 0.160983
2023/06/08 23:02:28.255, True, 1.327, 0.161975
2023/06/08 23:02:28.751, True, 1.347, 0.159686
2023/06/08 23:02:29.255, True, 1.659, 0.162890
2023/06/08 23:02:29.759, True, 1.326, 0.160906
2023/06/08 23:02:30.255, True, 1.347, 0.161135
2023/06/08 23:02:30.758, True, 1.658, 0.160678
2023/06/08 23:02:31.263, True, 1.328, 0.162280
2023/06/08 23:02:31.759, True, 1.346, 0.159228
2023/06/08 23:02:32.263, True, 1.658, 0.163882
2023/06/08 23:02:32.767, True, 1.326, 0.161822
2023/06/08 23:02:33.263, True, 1.348, 0.161517
2023/06/08 23:02:33.767, True, 1.661, 0.159762
2023/06/08 23:02:34.263, True, 1.681, 0.162814
2023/06/08 23:02:34.766, True, 1.327, 0.159915
2023/06/08 23:02:35.271, True, 1.326, 0.160601
2023/06/08 23:02:35.767, True, 1.348, 0.159304
2023/06/08 23:02:36.271, True, 1.658, 0.162509
2023/06/08 23:02:36.775, True, 1.327, 0.161593
2023/06/08 23:02:37.271, True, 1.348, 0.163119
2023/06/08 23:02:37.775, True, 1.326, 0.159380
2023/06/08 23:02:38.279, True, 1.658, 0.160983
2023/06/08 23:02:38.775, True, 1.348, 0.161822
2023/06/08 23:02:39.279, True, 1.326, 0.159533
2023/06/08 23:02:39.783, True, 1.658, 0.160220
2023/06/08 23:02:40.279, True, 1.348, 0.162203
2023/06/08 23:02:40.783, True, 1.327, 0.161212
2023/06/08 23:02:41.287, True, 1.658, 0.160678
2023/06/08 23:02:41.783, True, 1.347, 0.161517
2023/06/08 23:02:42.287, True, 1.326, 0.163195
2023/06/08 23:02:42.791, True, 1.326, 0.162051
2023/06/08 23:02:43.286, True, 1.685, 0.160372
2023/06/08 23:02:43.791, True, 1.326, 0.159991
2023/06/08 23:02:44.295, True, 1.329, 0.159915
2023/06/08 23:02:44.791, True, 1.346, 0.160067
2023/06/08 23:02:45.295, True, 1.658, 0.162890
2023/06/08 23:02:45.799, True, 1.326, 0.158694
2023/06/08 23:02:46.295, True, 1.685, 0.162737
2023/06/08 23:02:46.799, True, 1.327, 0.160296
2023/06/08 23:02:47.303, True, 1.326, 0.158923
2023/06/08 23:02:47.799, True, 1.348, 0.159457
2023/06/08 23:02:48.303, True, 1.658, 0.157397
2023/06/08 23:02:48.807, True, 1.327, 0.161135
2023/06/08 23:02:49.303, True, 1.348, 0.158923
2023/06/08 23:02:49.807, True, 1.661, 0.160830
2023/06/08 23:02:50.311, True, 1.325, 0.160678
2023/06/08 23:02:50.807, True, 1.347, 0.159304
2023/06/08 23:02:51.311, True, 1.658, 0.159609
2023/06/08 23:02:51.815, True, 1.328, 0.159533
2023/06/08 23:02:52.311, True, 1.346, 0.161135
2023/06/08 23:02:52.815, True, 1.326, 0.158312
2023/06/08 23:02:53.319, True, 1.660, 0.159457
2023/06/08 23:02:53.814, True, 1.347, 0.158999
2023/06/08 23:02:54.318, True, 1.326, 0.158770
2023/06/08 23:02:54.823, True, 1.658, 0.158770
2023/06/08 23:02:55.319, True, 1.348, 0.162127
2023/06/08 23:02:55.822, True, 1.657, 0.159609
2023/06/08 23:02:56.327, True, 1.658, 0.161440
2023/06/08 23:02:56.823, True, 1.348, 0.158846
2023/06/08 23:02:57.327, True, 1.326, 0.158389
2023/06/08 23:02:57.831, True, 1.326, 0.162814
2023/06/08 23:02:58.327, True, 1.685, 0.159457
2023/06/08 23:02:58.830, True, 1.326, 0.158465
2023/06/08 23:02:59.335, True, 1.658, 0.158999
2023/06/08 23:02:59.831, True, 1.348, 0.160754
2023/06/08 23:03:00.334, True, 1.326, 0.158770
2023/06/08 23:03:00.839, True, 1.659, 0.160296
2023/06/08 23:03:01.335, True, 1.348, 0.161212
2023/06/08 23:03:01.838, True, 1.325, 0.160906
2023/06/08 23:03:02.343, True, 1.326, 0.159991
2023/06/08 23:03:02.839, True, 1.348, 0.159075
2023/06/08 23:03:03.342, True, 1.326, 0.161440
2023/06/08 23:03:03.847, True, 1.658, 0.160220
2023/06/08 23:03:04.343, True, 1.685, 0.160830
2023/06/08 23:03:04.846, True, 1.327, 0.161898
2023/06/08 23:03:05.351, True, 1.329, 0.158770
2023/06/08 23:03:05.847, True, 1.682, 0.160601
2023/06/08 23:03:06.351, True, 1.326, 0.161593
2023/06/08 23:03:06.855, True, 1.658, 0.156405
2023/06/08 23:03:07.351, True, 1.348, 0.158465
2023/06/08 23:03:07.855, True, 1.329, 0.161440
2023/06/08 23:03:08.359, True, 1.655, 0.161212
2023/06/08 23:03:08.855, True, 1.348, 0.158389
2023/06/08 23:03:09.359, True, 1.326, 0.158389
2023/06/08 23:03:09.863, True, 1.659, 0.159457
2023/06/08 23:03:10.359, True, 1.347, 0.158083
2023/06/08 23:03:10.863, True, 1.658, 0.159609
2023/06/08 23:03:11.359, True, 1.348, 0.159380
2023/06/08 23:03:11.863, True, 1.658, 0.160220
2023/06/08 23:03:12.367, True, 1.658, 0.157778
2023/06/08 23:03:12.863, True, 1.348, 0.160372
2023/06/08 23:03:13.367, True, 1.326, 0.158236
2023/06/08 23:03:13.871, True, 1.326, 0.158083
2023/06/08 23:03:14.375, True, 1.327, 0.158541
2023/06/08 23:03:14.871, True, 1.686, 0.160372
2023/06/08 23:03:15.375, True, 1.326, 0.160906
2023/06/08 23:03:15.879, True, 1.658, 0.158923
2023/06/08 23:03:16.374, True, 1.685, 0.160143
2023/06/08 23:03:16.878, True, 1.329, 0.159228
2023/06/08 23:03:17.383, True, 1.324, 0.158160
2023/06/08 23:03:17.879, True, 1.685, 0.157702
2023/06/08 23:03:18.383, True, 1.326, 0.158694
2023/06/08 23:03:18.887, True, 1.326, 0.158770
2023/06/08 23:03:19.382, True, 1.348, 0.157931
2023/06/08 23:03:19.887, True, 1.658, 0.156710
2023/06/08 23:03:20.391, True, 1.326, 0.158465
2023/06/08 23:03:20.887, True, 1.685, 0.158236
2023/06/08 23:03:21.391, True, 1.327, 0.158999
2023/06/08 23:03:21.895, True, 1.328, 0.159075
2023/06/08 23:03:22.390, True, 1.682, 0.158312
2023/06/08 23:03:22.895, True, 1.326, 0.158923
2023/06/08 23:03:23.399, True, 1.658, 0.158465
2023/06/08 23:03:23.902, True, 1.326, 0.160372
2023/06/08 23:03:24.399, True, 1.684, 0.159380
2023/06/08 23:03:24.903, True, 1.327, 0.160754
2023/06/08 23:03:25.407, True, 1.326, 0.157168
2023/06/08 23:03:25.903, True, 1.348, 0.160220
2023/06/08 23:03:26.407, True, 1.658, 0.158389
2023/06/08 23:03:26.911, True, 1.326, 0.159152
2023/06/08 23:03:27.407, True, 1.348, 0.159686
2023/06/08 23:03:27.911, True, 1.659, 0.159533
2023/06/08 23:03:28.415, True, 1.327, 0.157244
2023/06/08 23:03:28.911, True, 1.346, 0.157931
2023/06/08 23:03:29.415, True, 1.326, 0.159075
2023/06/08 23:03:29.919, True, 1.326, 0.158618
2023/06/08 23:03:30.422, True, 1.662, 0.156481
2023/06/08 23:03:30.919, True, 1.347, 0.157626
2023/06/08 23:03:31.423, True, 1.324, 0.158236
2023/06/08 23:03:31.927, True, 1.326, 0.159228
2023/06/08 23:03:32.423, True, 1.686, 0.158312
2023/06/08 23:03:32.927, True, 1.327, 0.157931
2023/06/08 23:03:33.431, True, 1.325, 0.159915
2023/06/08 23:03:33.927, True, 1.348, 0.158846
2023/06/08 23:03:34.431, True, 1.658, 0.156329
2023/06/08 23:03:34.935, True, 1.326, 0.157549
2023/06/08 23:03:35.430, True, 1.348, 0.160220
2023/06/08 23:03:35.934, True, 1.658, 0.160449
2023/06/08 23:03:36.431, True, 1.348, 0.158694
2023/06/08 23:03:36.935, True, 1.326, 0.158160
2023/06/08 23:03:37.438, True, 1.658, 0.158618
2023/06/08 23:03:37.943, True, 1.327, 0.159609
2023/06/08 23:03:38.439, True, 1.347, 0.157626
2023/06/08 23:03:38.942, True, 1.326, 0.156023
2023/06/08 23:03:39.447, True, 1.326, 0.157321
2023/06/08 23:03:39.943, True, 1.685, 0.157092
2023/06/08 23:03:40.446, True, 1.327, 0.159152
2023/06/08 23:03:40.951, True, 1.327, 0.156786
2023/06/08 23:03:41.447, True, 1.684, 0.158465
2023/06/08 23:03:41.950, True, 1.326, 0.157321
2023/06/08 23:03:42.454, True, 1.326, 0.157931
2023/06/08 23:03:42.951, True, 1.686, 0.157855
2023/06/08 23:03:43.454, True, 1.325, 0.158465
2023/06/08 23:03:43.958, True, 1.327, 0.158389
2023/06/08 23:03:44.455, True, 1.348, 0.159228
2023/06/08 23:03:44.959, True, 1.326, 0.160983
2023/06/08 23:03:45.463, True, 1.327, 0.156329
2023/06/08 23:03:45.966, True, 1.657, 0.158618
2023/06/08 23:03:46.462, True, 1.347, 0.159304
2023/06/08 23:03:46.966, True, 1.327, 0.156634
2023/06/08 23:03:47.470, True, 1.657, 0.158160
2023/06/08 23:03:47.974, True, 1.327, 0.157549
2023/06/08 23:03:48.471, True, 1.348, 0.157855
2023/06/08 23:03:48.974, True, 1.656, 0.158389
2023/06/08 23:03:49.471, True, 1.348, 0.156939
2023/06/08 23:03:49.974, True, 1.327, 0.156786
2023/06/08 23:03:50.479, True, 1.326, 0.158999
2023/06/08 23:03:50.975, True, 1.349, 0.157931
2023/06/08 23:03:51.478, True, 1.324, 0.157092
2023/06/08 23:03:51.982, True, 1.661, 0.156405
2023/06/08 23:03:52.479, True, 1.347, 0.157702
2023/06/08 23:03:52.982, True, 1.325, 0.158465
2023/06/08 23:03:53.486, True, 1.658, 0.157473
2023/06/08 23:03:53.983, True, 1.687, 0.156329
2023/06/08 23:03:54.486, True, 1.327, 0.158083
2023/06/08 23:03:54.991, True, 1.324, 0.159304
2023/06/08 23:03:55.486, True, 1.685, 0.157778
2023/06/08 23:03:55.990, True, 1.329, 0.157168
2023/06/08 23:03:56.495, True, 1.655, 0.158160
2023/06/08 23:03:56.999, True, 1.326, 0.158770
2023/06/08 23:03:57.494, True, 1.348, 0.157015
2023/06/08 23:03:57.998, True, 1.326, 0.158846
2023/06/08 23:03:58.502, True, 1.326, 0.158541
2023/06/08 23:03:58.998, True, 1.350, 0.156329
2023/06/08 23:03:59.503, True, 1.655, 0.155489
2023/06/08 23:04:00.006, True, 1.658, 0.156634
2023/06/08 23:04:00.502, True, 1.348, 0.156023
2023/06/08 23:04:01.006, True, 1.327, 0.159380
2023/06/08 23:04:01.511, True, 1.658, 0.156023
2023/06/08 23:04:02.007, True, 1.348, 0.158236
2023/06/08 23:04:02.510, True, 1.326, 0.157015
2023/06/08 23:04:03.014, True, 1.327, 0.157931
2023/06/08 23:04:03.511, True, 1.348, 0.156634
2023/06/08 23:04:04.015, True, 1.658, 0.156023
2023/06/08 23:04:04.518, True, 1.326, 0.157778
2023/06/08 23:04:05.014, True, 1.348, 0.156939
2023/06/08 23:04:05.518, True, 1.326, 0.157092
2023/06/08 23:04:06.022, True, 1.327, 0.156100
2023/06/08 23:04:06.526, True, 1.658, 0.156786
2023/06/08 23:04:07.023, True, 1.348, 0.157702
2023/06/08 23:04:07.526, True, 1.661, 0.158236
2023/06/08 23:04:08.030, True, 1.324, 0.155489
2023/06/08 23:04:08.526, True, 1.348, 0.155261
2023/06/08 23:04:09.030, True, 1.658, 0.157397
2023/06/08 23:04:09.534, True, 1.326, 0.157931
2023/06/08 23:04:10.030, True, 1.348, 0.158541
2023/06/08 23:04:10.534, True, 1.326, 0.158465
2023/06/08 23:04:11.039, True, 1.326, 0.157244
2023/06/08 23:04:11.534, True, 1.685, 0.156176
2023/06/08 23:04:12.038, True, 1.328, 0.156329
2023/06/08 23:04:12.542, True, 1.656, 0.157244
2023/06/08 23:04:13.038, True, 1.348, 0.157168
2023/06/08 23:04:13.542, True, 1.326, 0.155032
2023/06/08 23:04:14.038, True, 1.685, 0.154650
2023/06/08 23:04:14.542, True, 1.326, 0.157015
2023/06/08 23:04:15.046, True, 1.326, 0.156710
2023/06/08 23:04:15.542, True, 1.685, 0.160830
2023/06/08 23:04:16.046, True, 1.327, 0.156558
2023/06/08 23:04:16.550, True, 1.326, 0.155413
2023/06/08 23:04:17.046, True, 1.685, 0.156786
2023/06/08 23:04:17.550, True, 1.326, 0.158618